Aérodrome :
LOGIN :

S'inscrire | Disclaimer

   EN    FR    IT 

 










Légende :    VFR   VFR Marginal   IFR   IFR Intensif   IFR Très Intensif
Visi : 
Plafond : 
>= 8 km
>= 3000ft
5 à 8 km
1000 à 3000 ft
1500m à 5 km
500 à 1000 ft
800 à 1500m
200 à 500 ft
< 800m
< 200 ft
Symboles :   Orages  Brouillard  Fortes neiges  Fortes précipitations  Vent > 20 kt
SIGMETs :   Divers  Orages  Givrage  Turbulence  Onde Orograph.  Cendres Volcan.







- Altitude de l'aérodrome : 194 ft
- Code IATA : ANE
- Voir les cartes d'approche


LFJR - Angers Marcé

DERNIER METAR :
  • 222330Z AUTO 00000KT CAVOK 03/02 Q1025

METARs EXPIRÉS :
  • 222300Z AUTO 00000KT 9999 3600 NSC 04/03 Q1025
  • 222230Z AUTO 00000KT 9999 4500 NSC 05/03 Q1025
  • 222200Z AUTO 00000KT 9999 FEW033 06/04 Q1025
  • 222130Z AUTO 23002KT 9999 BKN033 09/05 Q1025
  • 222100Z AUTO VRB01KT 9999 OVC034 10/06 Q1025

TAF AMD TAF LFJR
Valide du 22 à 16h jusqu'au 23 à 00h UTC


221614Z 2216/2224 31010KT 9999 BKN019
BECMG 2218/2220 24007KT
Pas de NOTAMs connus pour ce terrain.



MET'MAP, la Météo Aéronautique d'un coup d'oeil ! - Copyright ORBIFLY Décembre 2007 - Disclaimer

ORBIFLY MET'MAP TEAM :

Programmation & Développement : Alexandra Zaïnal
Conception & Développement : Baudouin d'Aumeries
Co-Programmation & Développement : Marc-Olivier Méhu
Soutien technique & logistique : Manuel Goepfert

Contact : metmap@orbifly.com




SOURCES & CREDITS :

   NOAA